Dewpoint
38 36 36 36 36 37 38 39 41 43 45 46 44 44 45 47 46 47 49 51 51 53
36 36 36 36 35 35 36 35 37 39 41 43 43 41 41 42 42 43 45 47 47 48
35 36 36 36 35 35 35 35 35 36 38 39 41 38 38 38 38 39 41 43 43 44
35 35 35 35 35 35 35 34 34 35 36 36 37 36 36 36 35 35 37 39 40 41
35 34 35 35 34 34 33 33 33 34 34 34 36 34 34 34 34 34 34 35 37 38
35 34 34 34 33 32 32 33 33 33 33 33 34 34 33 33 33 33 33 33 34 35
34 33 34 33 32 32 32 31 31 32 32 32 32 31 31 31 31 31 32 32 33 33
34 33 34 32 32 31 31 31 31 31 30 30 29 28 29 29 29 29 30 31 30 31
32 32 32 32 31 30 30 30 30 29 29 29 28 28 28 28 28 29 29 29 29 30
30 30 31 30 29 29 29 29 28 28 28 27 29 29 31 30 28 28 28 28 29 29
29 28 31 28 26 28 28 27 27 27 28 28 28 28 28 28 27 27 28 29 30 29
30 28 27 28 30 29 27 27 26 26 26 27 27 28 28 28 27 28 28 28 28 29
29 26 25 26 26 27 27 26 27 26 27 27 26 27 28 29 28 27 27 27 28 28
28 26 26 26 26 26 25 26 27 27 27 28 27 28 29 30 28 27 28 28 28 28
Wind_Speed
17 15 16 17 17 17 17 18 21 20 19 20 21 21 18 14 15 16 17 18 16 12
15 16 16 17 16 16 17 18 19 20 19 19 18 20 20 17 18 19 17 16 17 18
13 13 14 14 16 18 18 20 20 20 19 19 18 21 20 18 19 20 18 16 17 15
11 12 12 13 14 16 17 18 18 18 18 18 18 20 19 19 19 19 18 18 18 18
10 12 13 13 15 16 17 17 17 17 17 17 16 18 20 21 20 21 20 19 18 19
11 12 12 14 16 16 17 17 17 16 16 17 16 16 18 18 19 19 18 19 19 18
9 11 10 12 14 15 15 16 16 15 15 15 15 13 19 19 19 19 18 18 17 17
7 7 7 10 11 12 13 14 14 14 13 14 14 13 20 20 20 20 19 18 18 16
8 8 9 10 11 12 13 14 14 14 15 16 14 18 19 19 21 20 19 21 20 19
9 10 10 10 12 13 14 13 15 14 15 17 16 20 21 22 20 20 20 21 20 20
9 11 8 10 14 13 13 15 16 16 16 17 15 17 19 20 20 20 19 19 20 20
7 9 11 10 11 12 14 15 15 15 16 17 17 18 21 22 21 19 19 17 18 19
6 8 11 11 12 13 14 15 15 16 16 16 18 18 21 22 20 21 18 18 17 18
5 8 9 10 11 14 15 15 16 16 16 16 17 19 20 21 19 17 21 21 21 19
Wind_Direction
30 26 27 21 19 13 5 359 357 359 1 0 9 5 2 357 0 349 360 358 354 347
34 30 27 23 22 13 8 360 357 359 358 360 0 359 360 358 1 359 357 356 357 354
34 28 27 23 19 13 4 1 357 358 358 359 359 360 359 357 355 354 355 356 351 342
30 25 23 22 15 8 359 360 359 357 356 357 355 357 357 356 355 354 351 350 343 336
29 21 20 17 8 2 359 359 358 357 356 355 354 358 359 354 352 350 348 345 343 337
26 20 18 11 2 0 357 357 357 357 355 352 349 352 352 348 346 344 342 340 337 335
24 17 14 6 2 359 358 357 355 351 348 347 344 344 347 343 340 336 335 336 332 328
23 18 9 4 0 358 357 353 351 348 344 344 340 347 340 337 334 329 324 327 326 324
18 11 9 2 359 356 353 354 347 343 340 336 332 340 332 333 327 325 320 323 322 320
20 11 4 0 357 354 349 343 340 334 333 329 324 331 322 322 325 320 318 320 321 321
11 5 349 352 353 346 341 338 335 331 331 324 322 319 316 319 319 320 320 320 322 319
350 349 347 344 337 336 335 330 327 325 321 317 317 315 319 323 325 320 321 319 317 315
341 342 346 344 339 333 331 324 321 316 314 312 313 322 321 319 325 321 321 316 310 303
329 333 333 334 332 333 332 328 324 322 323 320 325 324 323 311 319 320 316 313 312 308